THORAD DELTA 1 DEB

Satellite information

Favourite Embed

Satellite Type and Status

DEBRISIN ORBIT

Key statistics

Satellite THORAD DELTA 1 DEB at a glance.

Uptime

18497

Days in orbit

Revolutions

≈ 13.4

Per day

Orbit

SSO

Sun Synchronous Orbit

Inclination

100.9

Latest

Satellite identification and parameters

Extended collection of information and parameters for THORAD DELTA 1 DEB.

Object identification

Identified? True

Debris? True

Object name: THORAD DELTA 1 DEB

International designator: 1974-089DL

Object number (NORAD): 8784

Object ID (CCSDS): 8784

Country: UNITED STATES OF AMERICA (US)

Current information (Y/N): Y

RCS size: SMALL

Orbital parameters

Period: 107.425 minutes

Inclination: 100.8963 deg

SMA: 7485.682 km

Apoapsis: 1251.806 km

Periapsis: 963.288 km

RAAN: 200.3248 deg

Eccentricy: 0.0192713

Argument of periapsis: 305.542 deg

Mean anomaly: 85.5843 deg

Mean motion: 13.4046574 rev/day

Mean motion (dot): 0.00010632 rev/day2

B* drag term: 0.017459 1/REarth

Two-line elements (TLE)

Creation date: July 6, 2025, 6:05 p.m.

Reference frame: TEME

Reference center: EARTH

Epoch: July 5, 2025, 11:35 p.m. UTC

TLE line 0: 0 THORAD DELTA 1 DEB

TLE line 1: 1 08784U 74089DL 25186.98301602 .00010632 00000-0 17459-1 0 9995

TLE line 2: 2 08784 100.8963 200.3248 0192713 305.5420 85.5843 13.40465740485843

Live tracking on map

Real-time ground track for satellite THORAD DELTA 1 DEB.

In-orbit conjunctions

A list of the most updated potential collisions computed for object THORAD DELTA 1 DEB.

Target Orbit TCA Probability of collision Miss distance Type
FENGYUN 1C DEB SSO 2024-11-13 14:47:26 0.0001760743 210.0 (m) DEBRIS

Associated space launch

Meteorological satellite using radiometric imaging

THORAD DELTA 1 DEB was lifted into orbit during the mission ‘Delta 2310 | NOAA 4’, on board a Delta 2310 space rocket.

The launch took place on Nov. 15, 1974, 5:11 p.m. from Space Launch Complex 2W.

For more information about the launch, click the button.

Launch to space Delta 2310 | NOAA 4
Delta 2310 | NOAA 4

Agency: N/A

Status: Launch Successful

Launch date: Nov. 15, 1974, 5:11 p.m. UTC

Rocket: Delta 2310

Launch pad: Space Launch Complex 2W

Location: Vandenberg SFB, CA, USA

...

Latest news about this satellite

There are no fresh news available about this satellite. Check back as we update our databases every day.


Newsletter sign-up

Weekly statistics, charts and insights to help you stay on top of the space industry.